Socorro, NM

3:06 AM MDT on July 23, 2017 (GMT -0600)
Socorro Municipal

Weather History for KONM - April, 2013

Change the Weather History Date:

Wednesday, April 24, 2013

  Actual Average Record
Temperature  
Mean Temperature 54 °F -  
Max Temperature 75 °F 78 °F 87 °F (2012)
Min Temperature 33 °F 37 °F 33 °F (2013)
Degree Days  
Heating Degree Days 11    
Growing Degree Days 4 (Base 50)    
Moisture  
Dew Point 19 °F    
Average Humidity 28    
Maximum Humidity 51    
Minimum Humidity 12    
Precipitation  
Precipitation 0.00 in - - ()
Sea Level Pressure  
Sea Level Pressure 30.12 in    
Wind  
Wind Speed 8 mph (South)    
Max Wind Speed 22 mph    
Max Gust Speed 26 mph    
Visibility 10 miles    
Events      
Averages and records for this station are not official NWS values.
T = Trace of Precipitation, MM = Missing Value Source: NWS Daily Summary

Daily Weather History Graph

Daily Weather History Graph

Search for Another Location

Airport or City:

Trip Planner

Search our weather history database for the weather conditions in past years. The results will help you decide how hot, cold, wet, or windy it might be!

Date:

Astronomy

Apr. 24, 2013 Rise Set
Actual Time 6:25 AM MDT 7:46 PM MDT
Civil Twilight 5:59 AM MDT 8:12 PM MDT
Nautical Twilight 5:28 AM MDT 8:43 PM MDT
Astronomical Twilight 4:55 AM MDT 9:16 PM MDT
Moon 6:54 PM MDT (4/24) 5:28 AM MDT (4/24)
Length of Visible Light 14h 13m
Length of Day
13h 20m
Waxing Gibbous, 98% of the Moon is Illuminated
Apr 24
Waxing Gibbous
Apr 25
Full
May 2
Last Quarter
May 9
New
May 17
First Quarter

Hourly Weather History & Observations

Time (MDT) Temp. Windchill Dew Point Humidity Pressure Visibility Wind Dir Wind Speed Gust Speed Precip Events Conditions
12:15 AM 43.7 °F 42.1 °F 17.6 °F 35% 30.15 in 10.0 mi SSW 3.5 mph - N/A   Clear
12:35 AM 43.7 °F 42.1 °F 18.5 °F 36% 30.15 in 10.0 mi South 3.5 mph - N/A   Clear
12:55 AM 41.0 °F - 18.3 °F 40% 30.15 in 10.0 mi Calm Calm - N/A   Clear
1:15 AM 41.7 °F 38.8 °F 19.4 °F 41% 30.15 in 10.0 mi SSE 4.6 mph - N/A   Clear
1:35 AM 41.4 °F - 19.2 °F 41% 30.15 in 10.0 mi Calm Calm - N/A   Clear
1:55 AM 37.8 °F 33.3 °F 17.4 °F 44% 30.14 in 10.0 mi WSW 5.8 mph - N/A   Clear
2:15 AM 38.5 °F 35.0 °F 18.1 °F 44% 30.14 in 10.0 mi West 4.6 mph - N/A   Clear
2:35 AM 39.4 °F 34.5 °F 18.9 °F 44% 30.15 in 10.0 mi NNW 6.9 mph - N/A   Clear
2:55 AM 39.2 °F 33.6 °F 18.5 °F 43% 30.14 in 10.0 mi NNW 8.1 mph - N/A   Clear
3:15 AM 38.8 °F 34.6 °F 18.5 °F 44% 30.15 in 10.0 mi NNW 5.8 mph - N/A   Clear
3:35 AM 38.1 °F 32.9 °F 18.3 °F 45% 30.15 in 10.0 mi NNW 6.9 mph - N/A   Clear
4:15 AM 36.7 °F 31.2 °F 17.6 °F 46% 30.15 in 10.0 mi NNW 6.9 mph - N/A   Clear
4:35 AM 36.3 °F 30.1 °F 17.6 °F 47% 30.15 in 10.0 mi NNW 8.1 mph - N/A   Clear
4:55 AM 35.6 °F 28.6 °F 17.4 °F 48% 30.15 in 10.0 mi NNW 9.2 mph - N/A   Clear
5:15 AM 35.6 °F 29.2 °F 17.6 °F 48% 30.15 in 10.0 mi North 8.1 mph - N/A   Clear
5:35 AM 35.1 °F 28.6 °F 17.6 °F 49% 30.15 in 10.0 mi NNW 8.1 mph - N/A   Clear
5:55 AM 34.2 °F 28.2 °F 17.4 °F 50% 30.16 in 10.0 mi NNW 6.9 mph - N/A   Clear
6:15 AM 33.8 °F 28.6 °F 17.4 °F 51% 30.16 in 10.0 mi NNW 5.8 mph - N/A   Clear
6:35 AM 33.8 °F 27.7 °F 17.2 °F 51% 30.17 in 10.0 mi NNW 6.9 mph - N/A   Clear
6:55 AM 34.7 °F 27.5 °F 17.4 °F 49% 30.17 in 10.0 mi NNW 9.2 mph - N/A   Clear
7:15 AM 36.7 °F 29.4 °F 16.9 °F 45% 30.18 in 10.0 mi North 10.4 mph - N/A   Clear
7:35 AM 37.6 °F 30.0 °F 16.7 °F 43% 30.19 in 10.0 mi North 11.5 mph - N/A   Clear
7:55 AM 39.2 °F 33.0 °F 16.7 °F 40% 30.20 in 10.0 mi North 9.2 mph - N/A   Clear
8:15 AM 40.5 °F 34.1 °F 17.1 °F 39% 30.20 in 10.0 mi North 10.4 mph - N/A   Clear
8:35 AM 42.1 °F 36.6 °F 16.5 °F 36% 30.21 in 10.0 mi North 9.2 mph - N/A   Clear
8:55 AM 43.7 °F 38.1 °F 16.7 °F 34% 30.21 in 10.0 mi North 10.4 mph - N/A   Clear
9:15 AM 45.1 °F 41.4 °F 16.9 °F 32% 30.21 in 10.0 mi North 6.9 mph - N/A   Clear
9:35 AM 46.8 °F - 16.7 °F 30% 30.21 in 10.0 mi NNE 6.9 mph - N/A   Clear
9:55 AM 48.7 °F - 16.0 °F 27% 30.21 in 10.0 mi Calm Calm - N/A   Clear
10:15 AM 49.6 °F - 17.1 °F 27% 30.21 in 10.0 mi NE 3.5 mph - N/A   Clear
10:35 AM 50.9 °F - 18.0 °F 27% 30.20 in 10.0 mi East 4.6 mph - N/A   Clear
10:55 AM 52.9 °F - 18.5 °F 26% 30.19 in 10.0 mi ESE 3.5 mph - N/A   Clear
11:15 AM 54.1 °F - 18.7 °F 25% 30.19 in 10.0 mi ESE 6.9 mph - N/A   Clear
11:35 AM 57.6 °F - 19.4 °F 23% 30.18 in 10.0 mi SSE 6.9 mph - N/A   Clear
11:55 AM 59.2 °F - 18.3 °F 20% 30.17 in 10.0 mi SE 11.5 mph 18.4 mph N/A   Clear
12:15 PM 61.3 °F - 17.8 °F 19% 30.16 in 10.0 mi SE 8.1 mph 17.3 mph N/A   Clear
12:35 PM 61.9 °F - 19.4 °F 19% 30.14 in 10.0 mi SSE 9.2 mph 18.4 mph N/A   Clear
12:55 PM 64.8 °F - 18.7 °F 17% 30.13 in 10.0 mi SSE 10.4 mph 21.9 mph N/A   Clear
1:15 PM 65.8 °F - 18.9 °F 17% 30.12 in 10.0 mi SSE 9.2 mph 13.8 mph N/A   Clear
1:35 PM 67.8 °F - 18.3 °F 15% 30.11 in 10.0 mi SSE 17.3 mph 21.9 mph N/A   Clear
1:55 PM 68.9 °F - 18.9 °F 15% 30.10 in 10.0 mi SSE 17.3 mph 26.5 mph N/A   Clear
2:15 PM 70.3 °F - 19.2 °F 14% 30.09 in 10.0 mi SSE 21.9 mph 25.3 mph N/A   Clear
2:35 PM 70.5 °F - 19.2 °F 14% 30.08 in 10.0 mi South 17.3 mph 24.2 mph N/A   Clear
2:55 PM 71.4 °F - 19.0 °F 14% 30.06 in 10.0 mi SSE 18.4 mph 24.2 mph N/A   Clear
3:15 PM 72.0 °F - 19.4 °F 14% 30.05 in 10.0 mi SSE 15.0 mph 24.2 mph N/A   Clear
3:35 PM 73.2 °F - 19.9 °F 13% 30.04 in 10.0 mi South 15.0 mph 25.3 mph N/A   Clear
3:55 PM 74.3 °F - 19.2 °F 13% 30.02 in 10.0 mi South 16.1 mph 23.0 mph N/A   Clear
4:15 PM 74.7 °F - 19.2 °F 12% 30.02 in 10.0 mi South 18.4 mph 26.5 mph N/A   Clear
4:35 PM 75.4 °F - 19.2 °F 12% 30.02 in 10.0 mi South 18.4 mph 21.9 mph N/A   Clear
4:55 PM 74.7 °F - 19.2 °F 12% 30.01 in 10.0 mi SSE 18.4 mph 25.3 mph N/A   Clear
5:15 PM 74.7 °F - 19.8 °F 13% 30.01 in 10.0 mi SSE 15.0 mph 25.3 mph N/A   Clear
5:35 PM 74.5 °F - 19.8 °F 13% 30.02 in 10.0 mi SE 12.7 mph 21.9 mph N/A   Clear
5:55 PM 73.6 °F - 19.9 °F 13% 30.02 in 10.0 mi South 11.5 mph - N/A   Clear
6:15 PM 73.8 °F - 20.1 °F 13% 30.02 in 10.0 mi SSE 11.5 mph - N/A   Clear
6:35 PM 72.0 °F - 19.6 °F 14% 30.01 in 10.0 mi SSE 12.7 mph 20.7 mph N/A   Clear
6:55 PM 70.7 °F - 21.0 °F 15% 30.02 in 10.0 mi SSE 12.7 mph 18.4 mph N/A   Clear
7:15 PM 70.5 °F - 18.7 °F 14% 30.02 in 10.0 mi SSE 12.7 mph - N/A   Clear
7:35 PM 67.5 °F - 23.0 °F 19% 30.04 in 10.0 mi SE 9.2 mph - N/A   Clear
7:55 PM 66.6 °F - 20.8 °F 18% 30.05 in 10.0 mi SE 10.4 mph - N/A   Clear
9:15 PM 62.8 °F - 21.9 °F 21% 30.07 in 10.0 mi South 10.4 mph - N/A   Clear
9:35 PM 62.6 °F - 21.7 °F 21% 30.08 in 10.0 mi South 11.5 mph - N/A   Clear
9:55 PM 62.1 °F - 21.2 °F 21% 30.09 in 10.0 mi South 10.4 mph - N/A   Clear
10:15 PM 61.3 °F - 21.2 °F 21% 30.10 in 10.0 mi SSW 10.4 mph - N/A   Clear
10:35 PM 59.5 °F - 21.0 °F 23% 30.10 in 10.0 mi SW 9.2 mph - N/A   Clear
10:55 PM 60.3 °F - 20.8 °F 22% 30.11 in 10.0 mi SSW 9.2 mph - N/A   Clear
11:15 PM 59.0 °F - 20.3 °F 22% 30.11 in 10.0 mi SSW 5.8 mph - N/A   Clear
11:35 PM 58.3 °F - 20.3 °F 23% 30.09 in 10.0 mi South 6.9 mph - N/A   Clear
11:55 PM 60.3 °F - 20.8 °F 22% 30.10 in 10.0 mi SSW 5.8 mph - N/A   Clear